Puyallup, WA

5:07 AM PDT on October 18, 2017 (GMT -0700)
Pierce County - Thun Field

Weather History for KPLU - October, 2013

Change the Weather History Date:

Sunday, October 13, 2013

  Actual Average (KTCM) Record (KTCM)
Temperature  
Mean Temperature 46 °F -  
Max Temperature 55 °F 59 °F 74 °F (2014)
Min Temperature 37 °F 40 °F 32 °F (2002)
Degree Days  
Heating Degree Days 19    
Moisture  
Dew Point 43 °F    
Average Humidity 94    
Maximum Humidity 100    
Minimum Humidity 67    
Precipitation  
Precipitation 0.00 in - - ()
Sea Level Pressure  
Sea Level Pressure 30.30 in    
Wind  
Wind Speed 0 mph (South)    
Max Wind Speed 4 mph    
Max Gust Speed -    
Visibility 5 miles    
Events Fog    
Averages and records for this station are not official NWS values.
T = Trace of Precipitation, MM = Missing Value Source: NWS Daily Summary

Daily Weather History Graph

Daily Weather History Graph

Search for Another Location

Airport or City:

Trip Planner

Search our weather history database for the weather conditions in past years. The results will help you decide how hot, cold, wet, or windy it might be!

Date:

Astronomy

Oct. 13, 2013 Rise Set
Actual Time 7:25 AM PDT 6:24 PM PDT
Civil Twilight 6:54 AM PDT 6:55 PM PDT
Nautical Twilight 6:18 AM PDT 7:30 PM PDT
Astronomical Twilight 5:43 AM PDT 8:06 PM PDT
Moon 3:38 PM PDT (10/13) 1:20 AM PDT (10/13)
Length of Visible Light 12h 01m
Length of Day
10h 59m
Waxing Gibbous, 70% of the Moon is Illuminated
Oct 13
Waxing Gibbous
Oct 18
Full
Oct 26
Last Quarter
Nov 3
New
Nov 9
First Quarter

Hourly Weather History & Observations

Time (PDT) Temp. Dew Point Humidity Pressure Visibility Wind Dir Wind Speed Gust Speed Precip Events Conditions
12:15 AM 46.4 °F 46.4 °F 100% 30.22 in 3.0 mi Calm Calm - N/A   Mist
12:35 AM 46.4 °F 46.4 °F 100% 30.23 in 5.0 mi Calm Calm - N/A   Mist
12:55 AM 46.4 °F 46.4 °F 100% 30.23 in 5.0 mi Calm Calm - N/A   Mist
1:15 AM 46.4 °F 46.4 °F 100% 30.23 in 2.5 mi Calm Calm - N/A   Mist
1:35 AM 44.6 °F 44.6 °F 100% 30.23 in 3.0 mi Calm Calm - N/A   Mist
1:55 AM 44.6 °F 44.6 °F 100% 30.24 in 1.5 mi Calm Calm - N/A   Mist
2:15 AM 41.0 °F 41.0 °F 100% 30.24 in 0.5 mi Calm Calm - N/A Fog Fog
2:35 AM 41.0 °F 41.0 °F 100% 30.24 in 0.2 mi Calm Calm - N/A Fog Fog
2:55 AM 39.2 °F 39.2 °F 100% 30.25 in 0.8 mi Calm Calm - N/A   Mist
3:15 AM 39.2 °F 39.2 °F 100% 30.25 in 0.5 mi Calm Calm - N/A Fog Fog
3:35 AM 37.4 °F 37.4 °F 100% 30.25 in 0.5 mi Calm Calm - N/A Fog Fog
3:55 AM 39.2 °F 39.2 °F 100% 30.25 in 2.0 mi Calm Calm - N/A   Mist
4:15 AM 41.0 °F 41.0 °F 100% 30.25 in 2.5 mi Calm Calm - N/A   Mist
4:35 AM 39.2 °F 39.2 °F 100% 30.25 in 1.0 mi Calm Calm - N/A   Mist
4:55 AM 39.2 °F 39.2 °F 100% 30.26 in 0.5 mi Calm Calm - N/A Fog Fog
5:15 AM 39.2 °F 39.2 °F 100% 30.26 in 0.2 mi Calm Calm - N/A Fog Fog
5:35 AM 41.0 °F 41.0 °F 100% 30.27 in 0.2 mi Calm Calm - N/A Fog Fog
5:55 AM 39.2 °F 39.2 °F 100% 30.27 in 0.2 mi Calm Calm - N/A Fog Fog
6:15 AM 41.0 °F 41.0 °F 100% 30.27 in 0.2 mi Calm Calm - N/A Fog Fog
6:35 AM 39.2 °F 39.2 °F 100% 30.27 in 0.5 mi Calm Calm - N/A Fog Fog
6:55 AM 39.2 °F 39.2 °F 100% 30.28 in 0.2 mi Calm Calm - N/A Fog Fog
7:15 AM 39.2 °F 39.2 °F 100% 30.28 in 0.2 mi Calm Calm - N/A Fog Fog
7:35 AM 37.4 °F 37.4 °F 100% 30.28 in 0.2 mi Calm Calm - N/A Fog Fog
7:55 AM 37.4 °F 37.4 °F 100% 30.29 in 0.2 mi Calm Calm - N/A Fog Fog
8:15 AM 39.2 °F 39.2 °F 100% 30.30 in 0.2 mi Calm Calm - N/A Fog Fog
8:55 AM 41.0 °F 41.0 °F 100% 30.31 in 0.2 mi Calm Calm - N/A Fog Fog
9:15 AM 42.8 °F 42.8 °F 100% 30.32 in 0.2 mi Calm Calm - N/A Fog Fog
9:35 AM 44.6 °F 44.6 °F 100% 30.32 in 0.2 mi Calm Calm - N/A Fog Fog
9:55 AM 44.6 °F 44.6 °F 100% 30.32 in 0.2 mi Calm Calm - N/A Fog Fog
10:15 AM 44.6 °F 44.6 °F 100% 30.32 in 0.2 mi Calm Calm - N/A Fog Fog
10:35 AM 44.6 °F 44.6 °F 100% 30.33 in 0.5 mi Calm Calm - N/A Fog Fog
10:55 AM 44.6 °F 44.6 °F 100% 30.33 in 2.0 mi Calm Calm - N/A   Mist
11:15 AM 46.4 °F 46.4 °F 100% 30.33 in 7.0 mi Calm Calm - N/A   Unknown
11:35 AM 46.4 °F 46.4 °F 100% 30.32 in 10.0 mi Calm Calm - N/A   Unknown
11:55 AM 48.2 °F 48.2 °F 100% 30.33 in 10.0 mi Calm Calm - N/A   Unknown
12:15 PM 50.0 °F 48.2 °F 94% 30.32 in 10.0 mi Calm Calm - N/A   Unknown
12:35 PM 50.0 °F 46.4 °F 87% 30.32 in 10.0 mi Calm Calm - N/A   Unknown
12:55 PM 50.0 °F 46.4 °F 87% 30.32 in 10.0 mi Calm Calm - N/A   Unknown
1:15 PM 50.0 °F 46.4 °F 87% 30.32 in 10.0 mi Calm Calm - N/A   Unknown
1:35 PM 53.6 °F 46.4 °F 77% 30.32 in 10.0 mi North 3.5 mph - N/A   Unknown
1:55 PM 53.6 °F 48.2 °F 82% 30.31 in 10.0 mi Calm Calm - N/A   Unknown
2:15 PM 55.4 °F 46.4 °F 72% 30.31 in 10.0 mi Calm Calm - N/A   Unknown
2:35 PM 53.6 °F 46.4 °F 77% 30.31 in 10.0 mi Calm Calm - N/A   Unknown
2:55 PM 53.6 °F 46.4 °F 77% 30.31 in 10.0 mi Calm Calm - N/A   Unknown
3:15 PM 55.4 °F 46.4 °F 72% 30.31 in 10.0 mi Calm Calm - N/A   Unknown
3:35 PM 55.4 °F 46.4 °F 72% 30.31 in 10.0 mi Calm Calm - N/A   Unknown
3:55 PM 55.4 °F 46.4 °F 72% 30.31 in 10.0 mi Calm Calm - N/A   Unknown
4:15 PM 55.4 °F 46.4 °F 72% 30.31 in 10.0 mi Calm Calm - N/A   Unknown
4:35 PM 55.4 °F 44.6 °F 67% 30.31 in 10.0 mi Calm Calm - N/A   Unknown
4:55 PM 55.4 °F 46.4 °F 72% 30.31 in 10.0 mi Calm Calm - N/A   Unknown
5:15 PM 55.4 °F 46.4 °F 72% 30.32 in 10.0 mi Calm Calm - N/A   Unknown
5:35 PM 55.4 °F 46.4 °F 72% 30.32 in 10.0 mi Calm Calm - N/A   Unknown
5:55 PM 53.6 °F 46.4 °F 77% 30.32 in 10.0 mi Calm Calm - N/A   Unknown
6:15 PM 50.0 °F 48.2 °F 94% 30.32 in 10.0 mi Calm Calm - N/A   Unknown
6:35 PM 48.2 °F 46.4 °F 93% 30.33 in 10.0 mi Calm Calm - N/A   Unknown
6:55 PM 44.6 °F 44.6 °F 100% 30.33 in 10.0 mi Calm Calm - N/A   Unknown
7:15 PM 44.6 °F 44.6 °F 100% 30.33 in 10.0 mi Calm Calm - N/A   Unknown
7:35 PM 44.6 °F 44.6 °F 100% 30.34 in 10.0 mi Calm Calm - N/A   Unknown
7:55 PM 42.8 °F 42.8 °F 100% 30.34 in 8.0 mi Calm Calm - N/A   Unknown
8:15 PM 42.8 °F 42.8 °F 100% 30.34 in 10.0 mi Calm Calm - N/A   Unknown
8:35 PM 41.0 °F 41.0 °F 100% 30.34 in 7.0 mi Calm Calm - N/A   Unknown
8:55 PM 41.0 °F 41.0 °F 100% 30.34 in 6.0 mi Calm Calm - N/A   Mist
9:15 PM 39.2 °F 39.2 °F 100% 30.35 in 3.0 mi Calm Calm - N/A   Mist
9:35 PM 39.2 °F 39.2 °F 100% 30.35 in 4.0 mi Calm Calm - N/A   Mist
9:55 PM 39.2 °F 39.2 °F 100% 30.36 in 1.5 mi Calm Calm - N/A   Mist
10:15 PM 39.2 °F 39.2 °F 100% 30.36 in 1.8 mi Calm Calm - N/A   Mist
10:35 PM 39.2 °F 39.2 °F 100% 30.36 in 5.0 mi Calm Calm - N/A   Mist
10:55 PM 37.4 °F 37.4 °F 100% 30.36 in 2.5 mi Calm Calm - N/A   Mist
11:15 PM 37.4 °F 37.4 °F 100% 30.36 in 1.8 mi Calm Calm - N/A   Mist
11:35 PM 37.4 °F 37.4 °F 100% 30.37 in 1.5 mi Calm Calm - N/A   Mist
11:55 PM 37.4 °F 37.4 °F 100% 30.37 in 3.0 mi Calm Calm - N/A   Mist